Tracking 18957 objects as of 22-Jan-2018
HD Live streaming from Space Station
objects crossing your sky now

FENGYUN 1C DEB

Track FENGYUN 1C DEB now!
10-day predictions


NORAD ID: 31086
Int'l Code: 1999-025BGG
Perigee: 559.4 km
Apogee: 732.7 km
Inclination: 99.0 °
Period: 97.5 minutes
Semi major axis: 7017 km
RCS: 0.0033 m2 (small)
Launch date: May 10, 1999
Source: People's Republic of China (PRC)
Launch site: Taiyaun Space Center, China (TSC)

Note: This is SATELLITE DEBRIS
aabbcc
Your satellite tracking list
Your tracking list is empty




NASA's NSSDC Master Catalog

Two Line Element Set (TLE):
1 31086U 99025BGG 18021.87559236 +.00001368 +00000-0 +18068-3 0  9994
2 31086 098.9854 038.7331 0123465 276.9749 207.7058 14.76969848578745
Source of the keplerian elements: AFSPC